Torna al catalogo

ARIANE 2 DEB

AttivoGTO
NORAD 33579·DEBRIS·🇫🇷 France

Lanciato Jan 27, 1989 da Guiana Space Centre

Loading…

TLE

In scadenzaSource: Space-Track

Epoca: Sep 14, 2026, 18:49 UTC

1 33579U 89006BX  26257.78454765 -.00000776  00000-0 -37477-1 0  9999
2 33579  11.3434  55.1663 7058450  63.9057  38.6350  2.24783975197122

Traccia ARIANE 2 DEB in tempo reale con AllMySat

Download on the App Store